Location: Marcé
(47.5801°N, 0.3280°W)
Time: 14:33:10
(UTC+01:00)

Explorer 7 - Pass Details

Date: 30 November 2021
Orbit: 483 x 674 km, 50.3° (Epoch: 19 January)

Event Time Altitude Azimuth Distance (km) Brightness Sun altitude
Rises 10:55:53 0° 276° (W) 2,677 10.0 16.1°
Reaches altitude 10° 10:58:11 10° 280° (W) 1,757 9.1 16.3°
Maximum altitude 11:02:05 56° 359° (N) 607 7.0 16.6°
Drops below altitude 10° 11:05:50 10° 79° (E) 1,685 9.6 16.9°
Sets 11:08:00 0° 84° (E) 2,554 10.5 17.0°
